Location: Unspecified
(0.0000°N, 0.0000°E)
Time: 05:58:42
(UTC+00:00)

Vanguard 3 - Visible Passes

Search period start: 28 May 2016 00:00
Search period end: 07 June 2016 00:00
Orbit: 509 x 3267 km, 33.4° (Epoch: 27 May)

Date Brightness Start Highest point End Pass type
(mag) Time Alt. Az. Time Alt. Az. Time Alt. Az.
28 May 11.3 18:04:02 10° NNW 18:11:47 15° NNE 18:20:54 10° NE visible
28 May 10.6 20:15:43 10° NNW 20:31:47 37° NNE 20:38:48 30° ENE visible
28 May 10.3 22:29:55 10° NW 22:43:22 54° NW 22:43:22 54° NW visible
29 May 10.9 19:02:01 10° NNW 19:14:27 25° NNE 19:29:04 10° ENE visible
29 May 10.1 21:14:34 10° NW 21:33:13 59° NE 21:33:39 59° NE visible
29 May 10.9 23:30:45 10° WNW 23:38:13 29° WNW 23:38:13 29° WNW visible
30 May 10.5 20:00:13 10° NNW 20:16:11 42° NE 20:23:59 32° ENE visible
30 May 10.2 22:14:13 10° NW 22:28:33 60° NW 22:28:33 60° NW visible
31 May 10.8 18:46:48 10° NNW 18:59:14 28° NNE 19:14:21 10° E visible
31 May 9.9 20:58:59 10° NW 21:17:17 66° NE 21:18:56 65° ENE visible
31 May 10.8 23:15:13 10° WNW 23:23:31 31° WNW 23:23:31 31° WNW visible
01 Jun 10.3 19:44:49 10° NNW 20:00:28 46° NE 20:09:22 32° E visible
01 Jun 10.0 21:58:41 10° WNW 22:13:57 66° WNW 22:13:57 66° WNW visible
02 Jun 11.5 00:18:26 10° W 00:18:33 10° W 00:18:33 10° W visible
02 Jun 10.7 18:31:36 10° NNW 18:43:54 30° NE 18:59:47 10° E visible
02 Jun 9.8 20:43:32 10° NW 21:01:17 74° NE 21:04:26 66° E visible
02 Jun 10.8 22:59:53 10° WNW 23:09:02 33° W 23:09:02 33° W visible
03 Jun 10.2 19:29:31 10° NW 19:44:40 52° NE 19:54:58 31° E visible
03 Jun 10.0 21:43:19 10° WNW 21:59:34 69° W 21:59:34 69° W visible
04 Jun 11.5 00:03:30 10° W 00:04:10 11° W 00:04:10 11° W visible
04 Jun 10.5 18:16:28 10° NNW 18:28:29 34° NE 18:44:47 10° E visible
04 Jun 9.8 20:28:15 10° NW 20:45:17 81° NE 20:50:09 62° ESE visible
04 Jun 10.7 22:44:45 10° WNW 22:54:45 35° W 22:54:45 35° W visible
05 Jun 10.0 19:14:20 10° NW 19:28:50 58° NE 19:40:46 29° ESE visible
05 Jun 10.0 21:28:08 10° WNW 21:45:22 67° SW 21:45:22 67° SW visible
05 Jun 11.4 23:48:46 10° W 23:49:58 12° W 23:49:58 12° W visible
06 Jun 10.3 18:01:24 10° NNW 18:12:59 37° NE 18:29:35 10° E visible
06 Jun 9.8 20:13:06 10° NW 20:29:18 90° NE 20:36:01 54° SE visible
06 Jun 10.7 22:29:50 10° W 22:40:38 35° WSW 22:40:38 35° WSW visible
